Weather History for Boerne Stage Field, TX

Change the Weather History Date:

Sunday, April 14, 2013

  Actual Average (KSAT) Record (KSAT)
Temperature  
Mean Temperature 72 °F 69 °F  
Max Temperature 87 °F 80 °F 95 °F (1961)
Min Temperature 57 °F 58 °F 33 °F (1980)
Degree Days  
Heating Degree Days 0 1  
Month to date heating degree days 29  
Since 1 July heating degree days 1484  
Cooling Degree Days 7 5  
Month to date cooling degree days 61  
Year to date cooling degree days 152  
Growing Degree Days 22 (Base 50)    
Moisture  
Dew Point 56 °F    
Average Humidity 68    
Maximum Humidity 100    
Minimum Humidity 29    
Precipitation  
Precipitation 0.00 in 0.06 in 1.00 in (1893)
Month to date precipitation 0.84  
Year to date precipitation 6.70  
Snow  
Snow 0.00 in - - ()
Month to date snowfall  
Since 1 July snowfall  
Snow Depth -    
Sea Level Pressure  
Sea Level Pressure 29.74 in    
Wind  
Wind Speed 7 mph (South)    
Max Wind Speed 15 mph    
Max Gust Speed 22 mph    
Visibility 8 miles    
Events      
T = Trace of Precipitation, MM = Missing Value Source: NWS Daily Summary

Daily Weather History Graph

Daily Weather History Graph

Search for Another Location

Airport:

Trip Planner

Search our weather history database for the weather conditions in past years. The results will help you decide how hot, cold, wet, or windy it might be!

Date:

Astronomy

Apr. 14, 2013 Rise Set
Actual Time 7:08 AM CDT 8:01 PM CDT
Civil Twilight 6:44 AM CDT 8:25 PM CDT
Nautical Twilight 6:15 AM CDT 8:54 PM CDT
Astronomical Twilight 5:46 AM CDT 9:24 PM CDT
Moon 10:00 AM CDT (4/14) No Moon Set
Length of Visible Light 13h 41m
Length of Day
12h 52m
Waxing Crescent, 17% of the Moon is Illuminated
Apr 14
Waxing Crescent
Apr 18
First Quarter
Apr 25
Full
May 2
Last Quarter
May 9
New

Hourly Weather History & Observations

Time (CDT) Temp. Heat Index Dew Point Humidity Pressure Visibility Wind Dir Wind Speed Gust Speed Precip Events Conditions
12:15 AM 60.8 °F - 51.8 °F 72% 29.85 in 10.0 mi SSE 4.6 mph - N/A   Scattered Clouds
12:35 AM 59.0 °F - 53.6 °F 82% 29.85 in 10.0 mi SSE 4.6 mph - N/A   Mostly Cloudy
12:55 AM 59.0 °F - 51.8 °F 77% 29.84 in 10.0 mi South 3.5 mph - N/A   Mostly Cloudy
1:15 AM 59.0 °F - 51.8 °F 77% 29.84 in 10.0 mi South 3.5 mph - N/A   Scattered Clouds
1:35 AM 57.2 °F - 53.6 °F 88% 29.82 in 10.0 mi South 6.9 mph - N/A   Mostly Cloudy
1:55 AM 59.0 °F - 53.6 °F 82% 29.82 in 10.0 mi South 6.9 mph - N/A   Overcast
2:15 AM 59.0 °F - 53.6 °F 82% 29.80 in 10.0 mi South 5.8 mph - N/A   Overcast
2:35 AM 59.0 °F - 55.4 °F 88% 29.79 in 10.0 mi South 8.1 mph - N/A   Overcast
2:55 AM 59.0 °F - 55.4 °F 88% 29.79 in 10.0 mi South 8.1 mph - N/A   Overcast
3:15 AM 59.0 °F - 55.4 °F 88% 29.78 in 10.0 mi South 9.2 mph - N/A   Overcast
3:35 AM 59.0 °F - 55.4 °F 88% 29.76 in 10.0 mi South 5.8 mph - N/A   Overcast
3:55 AM 59.0 °F - 55.4 °F 88% 29.76 in 10.0 mi South 9.2 mph - N/A   Overcast
4:15 AM 59.0 °F - 55.4 °F 88% 29.76 in 7.0 mi South 5.8 mph - N/A   Overcast
4:35 AM 59.0 °F - 55.4 °F 88% 29.77 in 7.0 mi South 6.9 mph - N/A   Overcast
4:55 AM 59.0 °F - 55.4 °F 88% 29.77 in 10.0 mi South 6.9 mph - N/A   Overcast
5:15 AM 59.0 °F - 57.2 °F 94% 29.76 in 10.0 mi South 4.6 mph - N/A   Overcast
5:35 AM 59.0 °F - 57.2 °F 94% 29.76 in 5.0 mi South 5.8 mph - N/A   Overcast
5:55 AM 59.0 °F - 57.2 °F 94% 29.76 in 3.0 mi South 6.9 mph - N/A   Overcast
6:15 AM 59.0 °F - 57.2 °F 94% 29.76 in 2.0 mi South 6.9 mph - N/A   Overcast
6:35 AM 59.0 °F - 57.2 °F 94% 29.75 in 1.8 mi South 4.6 mph - N/A   Overcast
6:55 AM 59.0 °F - 57.2 °F 94% 29.76 in 1.8 mi South 5.8 mph - N/A   Overcast
7:15 AM 59.0 °F - 57.2 °F 94% 29.76 in 1.5 mi South 6.9 mph - N/A   Overcast
7:35 AM 59.0 °F - 59.0 °F 100% 29.76 in 0.8 mi South 6.9 mph - N/A   Overcast
7:55 AM 60.8 °F - 59.0 °F 94% 29.77 in 1.0 mi South 6.9 mph - N/A   Overcast
8:15 AM 60.8 °F - 59.0 °F 94% 29.77 in 0.8 mi South 5.8 mph - N/A   Overcast
8:35 AM 60.8 °F - 59.0 °F 94% 29.77 in 0.8 mi SSW 6.9 mph - N/A   Overcast
8:55 AM 60.8 °F - 59.0 °F 94% 29.77 in 1.0 mi South 9.2 mph - N/A   Overcast
9:15 AM 60.8 °F - 59.0 °F 94% 29.78 in 1.2 mi SSW 5.8 mph - N/A   Overcast
9:35 AM 60.8 °F - 59.0 °F 94% 29.78 in 2.0 mi SW 11.5 mph - N/A   Overcast
9:55 AM 62.6 °F - 60.8 °F 94% 29.78 in 3.0 mi SSW 8.1 mph - N/A   Overcast
10:15 AM 62.6 °F - 60.8 °F 94% 29.79 in 10.0 mi SW 6.9 mph - N/A   Overcast
10:35 AM 64.4 °F - 60.8 °F 88% 29.79 in 10.0 mi SW 6.9 mph - N/A   Overcast
10:55 AM 66.2 °F - 62.6 °F 88% 29.79 in 10.0 mi SW 9.2 mph - N/A   Overcast
11:15 AM 68.0 °F - 60.8 °F 78% 29.78 in 10.0 mi SW 10.4 mph - N/A   Overcast
11:35 AM 68.0 °F - 60.8 °F 78% 29.78 in 10.0 mi SW 12.7 mph 17.3 mph N/A   Overcast
11:55 AM 69.8 °F - 60.8 °F 73% 29.79 in 10.0 mi SW 13.8 mph 19.6 mph N/A   Overcast
12:15 PM 71.6 °F - 60.8 °F 69% 29.78 in 10.0 mi SW 11.5 mph 16.1 mph N/A   Overcast
12:35 PM 73.4 °F - 60.8 °F 65% 29.77 in 10.0 mi SSW 12.7 mph 17.3 mph N/A   Scattered Clouds
12:55 PM 75.2 °F - 60.8 °F 61% 29.76 in 10.0 mi SSW 11.5 mph 21.9 mph N/A   Scattered Clouds
1:15 PM 77.0 °F - 60.8 °F 57% 29.75 in 10.0 mi SSW 11.5 mph 17.3 mph N/A   Clear
1:35 PM 78.8 °F - 60.8 °F 54% 29.74 in 10.0 mi SSW 11.5 mph - N/A   Clear
1:55 PM 78.8 °F - 60.8 °F 54% 29.74 in 10.0 mi SSW 15.0 mph 19.6 mph N/A   Clear
2:15 PM 80.6 °F 81.1 °F 59.0 °F 48% 29.72 in 10.0 mi SSW 15.0 mph - N/A   Clear
2:35 PM 80.6 °F 81.1 °F 59.0 °F 48% 29.72 in 10.0 mi SW 12.7 mph 20.7 mph N/A   Clear
2:55 PM 82.4 °F 82.0 °F 57.2 °F 42% 29.70 in 10.0 mi SSW 12.7 mph 17.3 mph N/A   Clear
3:15 PM 82.4 °F 82.0 °F 57.2 °F 42% 29.70 in 10.0 mi SSW 9.2 mph 19.6 mph N/A   Clear
3:35 PM 84.2 °F 83.0 °F 55.4 °F 37% 29.69 in 10.0 mi South 10.4 mph - N/A   Clear
3:55 PM 86.0 °F 84.2 °F 53.6 °F 33% 29.68 in 10.0 mi SSW 12.7 mph 20.7 mph N/A   Clear
4:15 PM 86.0 °F - 51.8 °F 31% 29.67 in 10.0 mi SSW 9.2 mph 17.3 mph N/A   Clear
4:35 PM 86.0 °F - 51.8 °F 31% 29.67 in 10.0 mi SSW 8.1 mph - N/A   Clear
4:55 PM 86.0 °F 84.2 °F 53.6 °F 33% 29.66 in 10.0 mi SSW 9.2 mph - N/A   Clear
5:15 PM 87.8 °F 85.7 °F 53.6 °F 31% 29.65 in 10.0 mi South 10.4 mph - N/A   Clear
5:35 PM 87.8 °F - 51.8 °F 29% 29.65 in 10.0 mi South 12.7 mph - N/A   Clear
5:55 PM 87.8 °F - 51.8 °F 29% 29.65 in 10.0 mi SSW 11.5 mph 16.1 mph N/A   Clear
6:15 PM 86.0 °F - 51.8 °F 31% 29.65 in 10.0 mi South 11.5 mph - N/A   Clear
6:35 PM 86.0 °F - 51.8 °F 31% 29.66 in 10.0 mi South 9.2 mph 16.1 mph N/A   Clear
6:55 PM 84.2 °F - 51.8 °F 33% 29.66 in 10.0 mi South 8.1 mph - N/A   Clear
7:15 PM 82.4 °F - 51.8 °F 35% 29.66 in 10.0 mi South 8.1 mph - N/A   Clear
7:35 PM 80.6 °F 80.3 °F 53.6 °F 39% 29.66 in 10.0 mi South 8.1 mph - N/A   Clear
7:55 PM 80.6 °F - 51.8 °F 37% 29.66 in 10.0 mi South 5.8 mph - N/A   Clear
8:15 PM 78.8 °F - 51.8 °F 39% 29.67 in 10.0 mi SSE 3.5 mph - N/A   Clear
8:35 PM 77.0 °F - 53.6 °F 44% 29.67 in 10.0 mi South 3.5 mph - N/A   Clear
8:55 PM 73.4 °F - 53.6 °F 50% 29.67 in 10.0 mi Calm Calm - N/A   Clear
9:15 PM 71.6 °F - 53.6 °F 53% 29.68 in 10.0 mi Calm Calm - N/A   Clear
9:35 PM 69.8 °F - 55.4 °F 60% 29.68 in 10.0 mi Calm Calm - N/A   Clear
9:55 PM 68.0 °F - 55.4 °F 64% 29.69 in 10.0 mi Calm Calm - N/A   Clear
10:15 PM 64.4 °F - 55.4 °F 73% 29.69 in 10.0 mi Calm Calm - N/A   Clear
10:35 PM 64.4 °F - 55.4 °F 73% 29.71 in 10.0 mi SSE 5.8 mph - N/A   Clear
10:55 PM 69.8 °F - 55.4 °F 60% 29.72 in 10.0 mi SSE 5.8 mph - N/A   Clear
11:15 PM 69.8 °F - 59.0 °F 68% 29.72 in 10.0 mi SSE 5.8 mph - N/A   Clear
11:35 PM 69.8 °F - 60.8 °F 73% 29.72 in 10.0 mi South 6.9 mph - N/A   Clear
11:55 PM 71.6 °F - 62.6 °F 73% 29.72 in 10.0 mi South 6.9 mph - N/A   Clear